"Pseudo-MPEC" for G13110

Created 2019 May 17 3:07:10 UT using Find_Orb

Click here for an explanation of pseudo-MPECs

 
 Astrometry: 
     G13110  'C2019 05 10-Vh=\$fX@#w%K4!9v8v^NnhJ82%a*uQl+@cgAstrometryxOy-Pw309
     G13110  'C2019 05 102eSKak@phDc!redacted;I$+xUQ)O;clickJ(jJFQTxc?Qi[vk[p309
     G13110  'C2019 05 10aIn$$=(do8;xg0#oU'p,[Hp!S_6OPqFktnJS2R='j2Z2C][xd+*E309
     G13110  'C2019 05 10ST,966Ca6i6*9ik`x6r2Hhereoo]G3i,2B`3)T#?w?U@U_YDV%*.309
     G13110  'C2019 05 10;V@=iMVi3hfNUo(YhYxw-6YQl85TSforENpKqKSMn@Znq)P*K0(H309
     G13110  'C2019 05 10di_w@+6/:iUh:Z`?gg3.)HV!+-_WqB%[1XRJH;dlp,,+F%r48Z=:309
     G13110  'C2019 05 107rFxX#o\*1!=KeYiW)u=4Bva0hAM)2O0XRY24=explanationwiZ309
     G13110  'C2019 05 10;:yN]0W3'l/#S?kNFtaFIKXU_DDB36](5eeEBRL4a)Aup'I1Ms\`309
     G13110  'C2019 05 10(u*LxL`4cBJN-Iq`P_!Y'\.QcXbj+xP3t[:r-T`KvdS]4Jwdywk[309

Station data:
(309) Cerro Paranal  (S24.627212 W70.404310)  Chile.

Orbital elements:  G13110
   Perihelion 2019 Apr 7.501993 +/- 40.6 TT = 12:02:52 (JD 2458581.001993)
Epoch 2019 May 10.0 TT = JDT 2458613.5   Earth MOID: 0.0076   AutoNEOCP
M  28.17419220 +/- 21               (J2000 ecliptic)
n   0.86695137 +/- 0.345            Peri.  332.84005 +/- 100
a   1.08928006 +/- 0.289            Node   223.58888 +/- 60
e   0.0724656 +/- 0.228             Incl.    0.14266 +/- 0.6
P   1.14/415.24d           H 30.5   G  0.15   U 12.0  SR
q 1.01034468 +/- 0.172    Q 1.16821544 +/- 4.1
From 9 observations 2019 May 10 (14.0 min); mean residual 0".25
Residuals in arcseconds: 
190510 309  .04+  .12-    190510 309  .03-  .09+    190510 309  .11-  .02+    
190510 309  .10-  .04-    190510 309  .23-  .02+    190510 309  .67-  .08+    
190510 309  .08+  .09+    190510 309  .62+  .02+    190510 309  .39+  .16-    

Ephemerides (geocentric):
Date (UTC) HH   RA              Dec         delta   r     elong  mag " sig PA
---- -- -- --  -------------   -----------  ------ ------ -----  --- ---- ---
2019 05 17 03  16 17 05.440   -19 23 40.21  .01505 1.0260 169.7 22.1  65d 170
2019 05 17 04  16 17 19.807   -19 24 02.33  .01507 1.0260 169.7 22.1  65d 170
2019 05 17 05  16 17 34.130   -19 24 24.33  .01509 1.0260 169.7 22.1  65d 170
2019 05 17 06  16 17 48.409   -19 24 46.19  .01512 1.0261 169.6 22.1  65d 169
2019 05 17 07  16 18 02.644   -19 25 07.92  .01514 1.0261 169.6 22.1  65d 169
2019 05 17 08  16 18 16.835   -19 25 29.53  .01516 1.0261 169.6 22.1  65d 169
2019 05 17 09  16 18 30.983   -19 25 51.01  .01518 1.0261 169.6 22.1  65d 169
2019 05 17 10  16 18 45.087   -19 26 12.37  .01521 1.0262 169.6 22.1  65d 169
2019 05 17 11  16 18 59.148   -19 26 33.60  .01523 1.0262 169.6 22.1  65d 169
2019 05 17 12  16 19 13.165   -19 26 54.70  .01525 1.0262 169.6 22.1  65d 169
2019 05 17 13  16 19 27.139   -19 27 15.69  .01527 1.0263 169.5 22.1  65d 169
2019 05 17 14  16 19 41.070   -19 27 36.55  .01530 1.0263 169.5 22.2  65d 169
2019 05 17 15  16 19 54.958   -19 27 57.28  .01532 1.0263 169.5 22.2  65d 169
2019 05 17 16  16 20 08.804   -19 28 17.90  .01534 1.0264 169.5 22.2  65d 169
2019 05 17 17  16 20 22.606   -19 28 38.39  .01537 1.0264 169.5 22.2  66d 169
2019 05 17 18  16 20 36.366   -19 28 58.77  .01539 1.0264 169.5 22.2  66d 169
2019 05 17 19  16 20 50.084   -19 29 19.02  .01541 1.0264 169.4 22.2  66d 169
2019 05 17 20  16 21 03.759   -19 29 39.16  .01543 1.0265 169.4 22.2  66d 169
2019 05 17 21  16 21 17.392   -19 29 59.18  .01546 1.0265 169.4 22.2  66d 169
2019 05 17 22  16 21 30.982   -19 30 19.08  .01548 1.0265 169.4 22.2  66d 169
2019 05 17 23  16 21 44.531   -19 30 38.86  .01550 1.0266 169.4 22.2  66d 169
2019 05 18 00  16 21 58.038   -19 30 58.53  .01553 1.0266 169.4 22.2  66d 169
2019 05 18 01  16 22 11.503   -19 31 18.09  .01555 1.0266 169.4 22.2  66d 169
2019 05 18 02  16 22 24.926   -19 31 37.53  .01557 1.0267 169.4 22.2  66d 169
2019 05 18 03  16 22 38.308   -19 31 56.85  .01560 1.0267 169.3 22.2  66d 169
2019 05 18 04  16 22 51.648   -19 32 16.07  .01562 1.0267 169.3 22.2  66d 169
2019 05 18 05  16 23 04.947   -19 32 35.17  .01564 1.0268 169.3 22.2  66d 169
2019 05 18 06  16 23 18.204   -19 32 54.16  .01566 1.0268 169.3 22.2  66d 169
2019 05 18 07  16 23 31.421   -19 33 13.03  .01569 1.0268 169.3 22.2  66d 169
2019 05 18 08  16 23 44.596   -19 33 31.80  .01571 1.0268 169.3 22.2  66d 169
2019 05 18 09  16 23 57.731   -19 33 50.46  .01573 1.0269 169.3 22.2  66d 169
2019 05 18 10  16 24 10.824   -19 34 09.00  .01576 1.0269 169.3 22.2  66d 169
2019 05 18 11  16 24 23.877   -19 34 27.44  .01578 1.0269 169.2 22.2  66d 169
2019 05 18 12  16 24 36.890   -19 34 45.78  .01580 1.0270 169.2 22.2  66d 169
2019 05 18 13  16 24 49.862   -19 35 04.00  .01583 1.0270 169.2 22.2  66d 169
2019 05 18 14  16 25 02.793   -19 35 22.12  .01585 1.0270 169.2 22.2  66d 169
2019 05 18 15  16 25 15.685   -19 35 40.13  .01587 1.0271 169.2 22.2  66d 169
2019 05 18 16  16 25 28.536   -19 35 58.04  .01590 1.0271 169.2 22.3  66d 169
2019 05 18 17  16 25 41.347   -19 36 15.84  .01592 1.0271 169.2 22.3  66d 169
2019 05 18 18  16 25 54.118   -19 36 33.54  .01594 1.0272 169.2 22.3  66d 169
2019 05 18 19  16 26 06.850   -19 36 51.13  .01597 1.0272 169.2 22.3  66d 169
2019 05 18 20  16 26 19.542   -19 37 08.62  .01599 1.0272 169.1 22.3  66d 169
2019 05 18 21  16 26 32.194   -19 37 26.01  .01601 1.0272 169.1 22.3  66d 169
2019 05 18 22  16 26 44.806   -19 37 43.30  .01604 1.0273 169.1 22.3  66d 169
2019 05 18 23  16 26 57.379   -19 38 00.49  .01606 1.0273 169.1 22.3  66d 169
2019 05 19 00  16 27 09.913   -19 38 17.57  .01608 1.0273 169.1 22.3  66d 169
2019 05 19 01  16 27 22.408   -19 38 34.56  .01611 1.0274 169.1 22.3  66d 169
2019 05 19 02  16 27 34.864   -19 38 51.45  .01613 1.0274 169.1 22.3  66d 169